Temp
-2 -1 -0 -1 -1 -0 -1 -1 -1 -1 -1 -1 -1 -1 -1 -2 -2 -3 -4 -4 -5 -5 -5 -5 -6 -7 -7 -8 -7 -8 -8 -8 -9 -8 -7 -7 -7 -7 -7 -8 -8 -8 -8 -8 -9
-2 -1 -1 -1 -1 -1 -0 -1 -1 -1 -1 -1 -1 -1 -1 -1 -2 -3 -4 -4 -4 -5 -5 -5 -6 -7 -7 -8 -8 -8 -8 -8 -7 -7 -7 -7 -7 -7 -7 -7 -7 -7 -7 -8 -8
-3 -2 -1 -1 -1 -1 -0 -0 -1 -1 -1 -1 -1 -1 -1 -1 -2 -2 -3 -4 -4 -5 -5 -5 -5 -6 -7 -8 -8 -8 -8 -7 -7 -7 -7 -7 -7 -6 -6 -7 -7 -7 -7 -8 -9
-4 -3 -2 -1 -0 -1 -1 -1 -1 -1 -1 -1 -1 -1 -1 -1 -2 -2 -3 -3 -4 -4 -5 -5 -5 -6 -7 -8 -7 -8 -8 -7 -6 -6 -7 -7 -7 -6 -6 -6 -6 -7 -7 -8 -8
-4 -4 -2 -2 -1 -1 -1 -1 -1 -1 -1 -1 -1 -1 -2 -1 -1 -2 -2 -3 -3 -4 -5 -5 -5 -6 -7 -8 -8 -8 -8 -7 -7 -6 -7 -7 -6 -6 -6 -6 -6 -6 -7 -7 -8
-4 -4 -4 -2 -2 -1 -1 -1 -1 -1 -1 -1 -1 -1 -2 -2 -2 -1 -2 -2 -3 -4 -5 -5 -5 -6 -7 -8 -9 -8 -8 -7 -6 -6 -7 -6 -6 -5 -5 -5 -6 -6 -6 -7 -8
-5 -4 -4 -4 -2 -2 -1 -1 -1 -1 -1 -1 -1 -1 -2 -2 -2 -1 -2 -3 -3 -4 -5 -5 -5 -6 -7 -8 -8 -8 -8 -7 -7 -7 -7 -7 -6 -5 -5 -6 -6 -6 -6 -6 -7
-7 -5 -4 -4 -4 -2 -2 -1 -1 -1 -1 -1 -1 -1 -2 -2 -2 -2 -1 -2 -3 -4 -4 -5 -5 -5 -6 -7 -8 -9 -8 -8 -8 -7 -7 -7 -7 -6 -6 -6 -6 -6 -6 -6 -7
-8 -7 -5 -4 -5 -4 -2 -2 -2 -1 -1 -1 -1 -1 -2 -2 -2 -2 -2 -2 -3 -4 -4 -5 -5 -5 -6 -7 -8 -8 -8 -8 -8 -7 -7 -8 -7 -7 -7 -7 -6 -6 -6 -6 -7
-8 -8 -6 -4 -4 -5 -4 -2 -3 -2 -1 -1 -2 -2 -2 -2 -2 -2 -2 -2 -3 -4 -4 -4 -5 -5 -6 -7 -8 -9 -8 -9 -8 -8 -8 -9 -8 -7 -8 -8 -7 -6 -6 -6 -7
-9 -8 -7 -6 -5 -5 -6 -4 -3 -2 -2 -2 -2 -2 -2 -2 -2 -2 -2 -2 -3 -4 -4 -5 -5 -5 -5 -7 -8 -8 -8 -8 -8 -8 -8 -9 -9 -8 -8 -8 -8 -7 -7 -7 -7
-10 -9 -8 -8 -7 -6 -6 -5 -5 -4 -3 -2 -2 -2 -2 -2 -2 -2 -2 -2 -2 -4 -4 -5 -5 -5 -6 -7 -7 -7 -8 -8 -8 -8 -8 -8 -9 -9 -8 -8 -8 -8 -7 -7 -7
-10 -10 -9 -8 -8 -7 -6 -6 -5 -5 -4 -3 -3 -3 -2 -3 -3 -2 -2 -2 -3 -3 -4 -5 -5 -6 -6 -7 -8 -8 -8 -8 -8 -8 -8 -8 -8 -9 -9 -8 -8 -8 -8 -7 -7
-10 -10 -9 -8 -9 -8 -7 -6 -6 -6 -5 -5 -4 -4 -3 -3 -3 -3 -3 -3 -3 -4 -5 -6 -6 -7 -7 -8 -8 -8 -8 -8 -8 -8 -8 -8 -8 -8 -8 -9 -8 -8 -8 -7 -6
-11 -10 -10 -9 -9 -9 -8 -7 -7 -6 -7 -6 -5 -4 -4 -3 -3 -3 -3 -3 -3 -4 -4 -5 -7 -8 -8 -9 -8 -8 -8 -8 -8 -8 -9 -8 -9 -8 -8 -8 -8 -8 -8 -7 -7
-11 -11 -10 -10 -9 -10 -9 -8 -7 -7 -7 -6 -6 -5 -5 -4 -4 -4 -3 -3 -4 -5 -7 -7 -8 -8 -9 -8 -8 -8 -8 -8 -8 -9 -9 -8 -8 -8 -8 -7 -7 -7 -7 -8 -7
-11 -11 -11 -11 -10 -10 -10 -9 -8 -8 -7 -7 -7 -6 -6 -5 -5 -4 -4 -3 -4 -5 -7 -8 -8 -9 -8 -8 -8 -8 -9 -9 -9 -9 -8 -8 -8 -8 -9 -8 -8 -8 -8 -8 -8
-11 -11 -11 -11 -10 -10 -11 -10 -9 -8 -8 -8 -7 -7 -7 -7 -6 -5 -5 -5 -5 -7 -8 -8 -8 -8 -9 -9 -9 -8 -9 -8 -8 -8 -8 -8 -8 -8 -8 -8 -8 -8 -8 -8 -8
-11 -11 -11 -11 -11 -11 -11 -11 -10 -9 -9 -8 -8 -8 -8 -7 -7 -7 -6 -6 -6 -7 -8 -8 -8 -9 -9 -9 -9 -9 -9 -9 -9 -9 -9 -8 -8 -8 -8 -8 -8 -8 -8 -8 -8
-11 -11 -12 -12 -11 -11 -11 -11 -10 -10 -9 -9 -8 -8 -8 -8 -8 -7 -7 -7 -7 -7 -7 -9 -9 -8 -8 -9 -9 -9 -9 -9 -9 -9 -9 -8 -9 -9 -8 -8 -8 -8 -7 -8 -8
-11 -11 -12 -12 -11 -11 -10 -10 -11 -11 -10 -9 -9 -8 -9 -9 -8 -8 -8 -8 -8 -7 -8 -9 -9 -9 -8 -9 -9 -9 -9 -9 -9 -9 -8 -8 -8 -9 -9 -8 -8 -8 -7 -7 -7
-12 -11 -11 -12 -11 -11 -11 -11 -11 -11 -11 -10 -9 -9 -9 -9 -8 -9 -9 -8 -8 -8 -8 -7 -8 -9 -9 -9 -9 -9 -9 -9 -9 -9 -9 -9 -9 -9 -9 -8 -8 -8 -8 -7 -7
-12 -12 -11 -12 -11 -11 -11 -10 -11 -11 -11 -10 -10 -9 -9 -9 -9 -9 -9 -9 -8 -8 -9 -8 -8 -9 -9 -9 -9 -9 -9 -9 -9 -9 -9 -9 -9 -10 -9 -8 -8 -8 -8 -8 -8
-12 -12 -12 -11 -11 -11 -11 -11 -11 -11 -11 -11 -10 -10 -9 -10 -9 -9 -9 -9 -9 -9 -9 -9 -9 -8 -8 -9 -9 -9 -9 -9 -9 -9 -9 -9 -10 -10 -9 -9 -8 -8 -8 -8 -8
-12 -12 -12 -11 -12 -12 -12 -11 -11 -11 -11 -11 -11 -10 -10 -10 -10 -10 -10 -9 -9 -9 -9 -9 -9 -9 -9 -9 -9 -9 -9 -10 -10 -9 -9 -9 -10 -9 -9 -8 -8 -8 -8 -8 -8
-12 -12 -12 -12 -12 -12 -12 -12 -11 -11 -11 -12 -11 -11 -10 -10 -10 -10 -10 -10 -10 -9 -9 -9 -9 -9 -9 -9 -9 -10 -10 -10 -10 -10 -10 -10 -10 -9 -9 -8 -8 -8 -8 -8 -8
-13 -12 -12 -12 -12 -12 -12 -12 -12 -12 -11 -12 -12 -11 -11 -11 -10 -10 -10 -10 -10 -10 -10 -9 -9 -9 -10 -9 -10 -10 -10 -9 -10 -10 -10 -10 -10 -10 -9 -8 -8 -8 -8 -8 -8
Height
5893 5896 5899 5902 5905 5908 5910 5912 5913 5913 5913 5914 5915 5915 5914 5913 5913 5913 5913 5915 5916 5917 5920 5921 5922 5924 5926 5929 5931 5931 5939 5939 5936 5937 5932 5931 5930 5929 5928 5927 5926 5926 5926 5926 5926
5888 5891 5895 5898 5902 5904 5907 5909 5911 5912 5913 5914 5915 5915 5914 5914 5914 5913 5913 5914 5915 5917 5919 5922 5923 5925 5928 5930 5932 5933 5941 5937 5934 5934 5932 5932 5931 5930 5930 5929 5929 5928 5928 5928 5928
5884 5886 5890 5893 5897 5900 5903 5906 5908 5910 5911 5913 5914 5915 5915 5914 5914 5913 5912 5913 5914 5917 5918 5921 5924 5926 5929 5931 5932 5934 5936 5934 5934 5933 5932 5932 5932 5931 5931 5930 5930 5930 5929 5929 5929
5879 5881 5884 5888 5892 5896 5899 5903 5905 5907 5909 5911 5912 5914 5915 5915 5915 5913 5913 5913 5914 5916 5918 5921 5924 5926 5929 5931 5932 5935 5935 5934 5933 5933 5933 5932 5931 5931 5931 5930 5930 5929 5930 5930 5930
5874 5876 5878 5882 5886 5890 5895 5898 5902 5904 5907 5909 5911 5912 5914 5915 5914 5913 5913 5913 5914 5916 5918 5921 5924 5927 5929 5931 5933 5934 5934 5935 5934 5933 5933 5932 5932 5931 5930 5930 5930 5930 5930 5930 5930
5870 5872 5873 5876 5880 5884 5889 5893 5897 5901 5904 5906 5908 5910 5912 5914 5913 5913 5912 5913 5914 5915 5917 5920 5924 5927 5929 5930 5934 5934 5934 5935 5935 5934 5933 5932 5932 5932 5932 5931 5931 5931 5930 5930 5930
5863 5867 5869 5870 5873 5878 5883 5888 5892 5896 5900 5902 5905 5907 5910 5913 5913 5913 5912 5913 5914 5915 5916 5919 5923 5926 5929 5930 5933 5935 5935 5935 5936 5935 5935 5934 5933 5932 5932 5931 5932 5931 5930 5930 5930
5854 5859 5865 5866 5867 5872 5877 5881 5887 5891 5895 5898 5901 5904 5908 5910 5911 5912 5912 5912 5913 5914 5916 5918 5921 5926 5928 5930 5932 5934 5935 5936 5936 5936 5935 5935 5935 5933 5932 5933 5933 5932 5931 5931 5931
5849 5851 5857 5861 5863 5865 5870 5875 5880 5886 5890 5893 5897 5900 5904 5907 5909 5911 5911 5911 5912 5913 5915 5917 5919 5922 5927 5929 5931 5932 5937 5940 5937 5936 5936 5937 5935 5934 5933 5933 5934 5933 5932 5932 5932
5843 5845 5848 5852 5858 5860 5863 5868 5874 5880 5884 5888 5893 5898 5900 5904 5906 5908 5910 5910 5911 5912 5914 5917 5919 5922 5924 5927 5933 5933 5939 5937 5937 5938 5936 5936 5935 5934 5933 5933 5934 5934 5933 5932 5932
5836 5840 5842 5844 5849 5855 5860 5861 5869 5874 5878 5883 5888 5892 5895 5900 5903 5906 5907 5909 5910 5912 5913 5916 5919 5920 5923 5925 5932 5934 5934 5937 5936 5936 5936 5936 5934 5933 5934 5933 5933 5934 5933 5932 5931
5830 5833 5837 5839 5841 5847 5854 5858 5860 5866 5871 5876 5881 5886 5891 5895 5899 5902 5905 5907 5908 5910 5911 5914 5917 5920 5922 5923 5926 5928 5932 5936 5934 5935 5936 5935 5934 5934 5932 5933 5933 5933 5934 5933 5932
5825 5827 5830 5834 5835 5839 5846 5853 5855 5859 5865 5870 5875 5881 5886 5892 5895 5898 5901 5903 5904 5906 5909 5912 5915 5917 5920 5922 5924 5927 5930 5933 5935 5934 5934 5935 5934 5933 5932 5931 5931 5931 5932 5932 5932
5819 5821 5824 5828 5831 5832 5839 5845 5851 5855 5860 5865 5871 5875 5880 5884 5888 5892 5896 5900 5901 5903 5906 5909 5912 5915 5916 5919 5923 5928 5927 5929 5931 5932 5933 5932 5937 5934 5931 5930 5930 5929 5928 5929 5930
5813 5815 5818 5821 5825 5828 5833 5838 5845 5851 5858 5861 5864 5868 5874 5881 5885 5888 5891 5894 5897 5900 5903 5908 5908 5912 5915 5918 5921 5924 5923 5925 5927 5929 5929 5929 5930 5933 5929 5928 5928 5927 5927 5926 5926
5807 5810 5812 5814 5818 5823 5826 5831 5839 5847 5850 5855 5859 5864 5869 5873 5879 5882 5887 5889 5892 5895 5900 5903 5907 5910 5914 5915 5916 5919 5920 5921 5923 5925 5925 5928 5926 5929 5927 5924 5923 5924 5924 5923 5923
5801 5804 5806 5808 5812 5818 5821 5825 5833 5838 5845 5850 5856 5861 5866 5870 5873 5878 5883 5886 5890 5893 5896 5901 5904 5906 5909 5911 5912 5914 5916 5920 5922 5921 5924 5921 5921 5922 5921 5920 5920 5921 5921 5920 5919
5794 5798 5800 5802 5807 5812 5817 5821 5824 5834 5840 5844 5849 5856 5861 5865 5870 5874 5878 5882 5886 5891 5897 5899 5899 5902 5905 5909 5909 5910 5915 5920 5919 5921 5922 5916 5915 5917 5916 5916 5917 5917 5917 5916 5915
5788 5791 5794 5797 5801 5805 5811 5814 5822 5828 5831 5838 5845 5850 5855 5860 5866 5869 5874 5880 5884 5887 5895 5898 5902 5899 5901 5904 5908 5907 5908 5914 5914 5914 5913 5916 5911 5911 5910 5911 5911 5911 5911 5910 5909
5781 5784 5788 5791 5794 5798 5804 5810 5815 5820 5827 5833 5839 5845 5849 5854 5859 5865 5869 5875 5879 5883 5886 5891 5897 5895 5896 5900 5902 5903 5907 5908 5910 5912 5910 5910 5908 5910 5905 5905 5904 5904 5904 5903 5902
5774 5777 5783 5785 5788 5790 5799 5809 5812 5815 5821 5827 5832 5837 5844 5850 5856 5861 5866 5870 5873 5877 5881 5886 5889 5891 5892 5893 5898 5899 5900 5902 5906 5905 5907 5908 5908 5902 5901 5900 5899 5899 5898 5896 5895
5768 5771 5776 5779 5783 5786 5792 5801 5808 5811 5815 5821 5827 5832 5838 5845 5850 5856 5861 5866 5868 5870 5873 5879 5883 5885 5887 5888 5891 5895 5898 5898 5900 5901 5900 5899 5902 5897 5896 5896 5895 5893 5892 5891 5890
5761 5764 5768 5773 5776 5779 5784 5793 5801 5805 5809 5814 5821 5826 5832 5839 5845 5850 5856 5858 5862 5866 5868 5871 5874 5879 5883 5882 5884 5886 5890 5893 5895 5898 5895 5895 5900 5892 5890 5890 5888 5887 5885 5884 5884
5754 5757 5761 5765 5770 5772 5776 5784 5792 5799 5803 5809 5815 5822 5827 5834 5838 5844 5847 5852 5857 5861 5863 5866 5869 5871 5877 5879 5883 5882 5883 5886 5889 5890 5892 5891 5889 5888 5884 5883 5882 5880 5878 5877 5875
5746 5750 5754 5758 5762 5765 5770 5775 5783 5792 5796 5802 5809 5814 5820 5827 5832 5838 5843 5846 5851 5855 5858 5860 5863 5866 5870 5875 5877 5878 5878 5878 5880 5883 5883 5886 5881 5881 5876 5876 5875 5873 5871 5869 5868
5737 5742 5746 5751 5755 5760 5763 5767 5774 5782 5790 5794 5800 5807 5813 5819 5823 5831 5834 5839 5845 5848 5851 5854 5858 5860 5864 5865 5868 5869 5871 5871 5873 5875 5873 5872 5871 5871 5869 5867 5867 5865 5864 5862 5861
5728 5733 5738 5743 5748 5752 5755 5760 5765 5773 5779 5787 5793 5799 5804 5808 5817 5822 5827 5831 5835 5841 5844 5847 5850 5854 5858 5857 5860 5861 5861 5864 5865 5866 5866 5863 5861 5859 5860 5859 5857 5856 5854 5853 5852
Wind_Speed
27 28 28 25 20 19 16 13 11 10 9 6 2 4 7 10 9 7 7 8 12 9 11 12 19 16 16 12 13 16 15 9 10 9 12 13 13 13 14 12 10 11 12 12 12
28 30 30 29 24 22 21 17 13 12 12 8 6 2 5 9 9 7 6 10 10 9 9 11 16 19 18 12 12 15 8 8 11 9 9 10 11 12 12 13 10 10 11 11 10
26 31 33 30 29 24 24 21 16 13 14 11 7 5 3 7 9 6 6 10 9 10 9 9 12 16 18 12 10 9 5 5 9 7 6 7 10 9 9 10 11 10 11 10 8
24 29 33 35 32 28 24 24 20 16 14 14 11 7 4 4 7 6 4 9 7 10 11 10 10 12 16 12 9 4 3 3 7 7 6 9 9 7 8 9 9 12 9 9 10
24 25 30 35 36 33 28 26 24 20 16 15 14 10 7 1 4 6 3 6 8 11 13 13 12 10 13 14 10 2 4 5 6 7 8 8 8 9 8 9 8 9 9 7 7
27 24 26 33 36 37 32 29 27 23 19 18 18 14 10 4 1 4 1 4 7 11 12 14 12 10 13 13 9 6 6 7 4 7 7 7 7 8 8 7 7 8 8 5 4
29 28 25 28 34 38 36 32 31 26 24 20 21 18 13 7 6 0 2 4 7 11 13 14 14 13 14 16 15 11 11 6 2 3 5 7 6 7 8 9 6 7 9 8 7
28 29 26 27 30 36 37 34 33 30 27 23 23 21 16 12 8 4 1 5 8 11 11 13 14 14 15 18 18 16 15 12 4 2 3 8 4 3 7 9 7 7 7 9 10
29 27 28 28 28 33 37 35 34 32 30 26 26 24 20 16 12 8 3 5 9 12 11 12 13 11 14 19 18 16 11 11 10 4 3 7 3 6 7 8 6 5 5 8 8
30 29 28 28 28 31 35 37 36 34 32 28 28 26 24 20 16 10 7 6 10 13 13 13 13 11 12 15 13 14 15 14 10 7 4 4 2 4 7 7 6 2 2 3 4
27 32 30 29 28 31 33 38 38 36 34 31 30 29 26 23 19 13 10 8 11 15 16 15 16 13 9 15 16 14 16 12 11 9 9 5 1 3 3 1 4 2 1 0 1
23 30 31 31 29 31 35 37 37 37 36 34 32 32 29 27 22 16 12 9 10 13 15 15 13 14 13 14 15 15 17 14 12 9 10 6 4 3 5 3 5 4 2 4 4
23 26 31 33 30 32 36 38 37 37 36 36 34 34 31 28 26 21 16 14 13 13 13 12 14 11 11 11 12 17 16 14 11 10 11 10 8 4 5 7 9 8 7 8 6
23 25 27 33 33 32 36 38 39 35 35 35 34 35 35 34 31 27 22 17 14 15 17 18 14 12 10 9 11 11 14 14 13 11 13 11 7 8 9 12 16 16 13 11 8
23 22 25 31 33 31 34 37 38 37 33 35 37 37 36 35 32 28 24 20 17 12 12 12 12 13 13 13 14 19 16 15 19 16 19 17 15 13 14 17 19 19 16 14 12
23 23 25 27 32 31 32 35 37 38 36 35 37 36 36 37 34 32 29 24 22 21 18 19 16 18 18 18 19 17 15 14 15 14 16 15 17 12 20 15 21 19 19 16 16
24 24 27 27 30 31 31 33 37 40 39 36 37 37 34 35 36 33 28 25 23 22 20 16 17 19 19 19 20 18 14 7 10 12 11 22 19 13 17 12 11 18 21 21 21
25 26 28 28 29 32 32 34 40 38 37 39 38 37 35 36 34 33 31 26 27 24 19 20 23 23 23 18 16 14 12 11 11 12 12 20 16 13 15 18 18 17 20 22 25
26 27 29 30 30 30 33 36 34 35 43 39 35 38 38 37 36 34 31 27 23 26 22 20 16 23 24 25 15 14 13 15 14 17 14 13 14 14 15 15 19 20 23 24 26
24 26 29 32 31 28 32 37 36 37 40 37 35 41 41 41 39 35 32 30 29 28 28 21 22 20 25 21 21 18 13 10 10 13 12 16 14 12 18 18 19 19 19 23 27
24 25 28 33 32 31 30 34 33 34 38 41 38 41 41 39 39 37 33 32 30 29 28 25 27 24 26 28 20 24 22 18 15 15 11 10 10 14 19 19 20 19 19 22 24
25 24 27 33 31 29 28 31 35 34 36 39 38 38 42 37 41 34 34 33 32 32 30 28 27 29 25 28 27 21 18 19 12 14 14 16 13 17 15 16 18 21 21 22 25
26 23 26 31 31 30 30 27 40 37 37 37 39 37 39 39 37 37 34 36 34 31 30 30 30 28 29 32 33 27 25 21 16 16 17 13 10 20 18 17 20 20 23 25 27
27 26 26 31 32 30 34 35 42 41 38 37 39 39 40 39 37 36 34 34 35 35 33 31 27 32 28 24 21 23 26 19 21 19 17 19 18 17 21 21 23 25 26 27 28
29 28 27 29 32 31 32 37 40 46 42 39 38 41 43 41 40 36 33 33 32 35 36 37 35 32 27 25 24 25 24 23 22 22 24 20 27 24 27 25 25 27 27 27 28
32 29 29 28 29 28 29 36 42 46 47 42 42 41 42 41 42 36 41 38 35 35 38 39 36 34 30 32 30 29 28 29 28 27 30 34 34 28 25 27 27 28 29 28 30
35 33 31 31 30 30 32 33 38 44 50 48 43 43 42 47 44 40 38 38 38 34 35 34 41 37 28 34 32 34 35 33 34 33 35 38 41 36 29 28 28 29 30 30 30
Wind_Direction
221 218 218 218 216 218 224 222 215 211 202 170 142 26 20 34 55 95 121 142 151 159 136 127 115 130 136 134 104 84 96 112 97 77 74 73 71 77 78 76 86 104 107 99 93
226 221 220 220 217 215 218 223 218 212 209 191 165 96 27 24 48 90 118 137 151 152 143 135 122 118 132 132 125 91 134 124 89 74 74 69 75 89 91 99 99 105 108 103 83
232 224 221 220 220 219 217 219 221 214 214 207 189 166 58 19 31 80 119 127 152 145 147 141 128 123 126 131 119 122 163 76 74 59 48 69 74 85 103 107 110 106 106 102 94
243 229 223 221 220 220 218 219 220 218 217 212 203 193 156 27 18 48 109 129 130 147 149 146 137 130 130 145 126 106 126 115 80 53 35 72 65 82 117 112 108 107 100 99 106
246 241 224 223 219 219 217 218 222 220 216 214 210 209 178 145 8 21 108 128 120 133 151 155 147 136 142 138 124 157 188 164 96 71 60 64 75 102 104 101 98 98 101 98 100
244 247 234 224 222 218 215 215 220 220 216 214 212 211 198 185 144 11 90 155 126 137 152 160 157 147 151 152 166 185 172 152 81 70 51 41 57 98 97 85 93 99 109 110 105
235 244 245 228 222 221 215 215 217 218 214 215 214 214 202 210 173 32 2 176 139 149 159 168 169 162 161 161 163 180 203 190 153 75 55 56 83 85 97 82 85 99 105 109 113
227 230 243 240 224 219 220 215 216 216 213 214 213 216 205 206 210 174 261 177 164 162 170 175 180 166 170 177 167 189 209 232 200 149 72 60 46 104 95 74 95 80 88 104 106
237 223 226 242 235 219 215 216 213 212 211 212 210 212 210 209 219 184 212 179 176 178 178 185 195 191 181 181 186 182 201 195 231 225 206 111 250 121 98 76 49 48 92 117 108
244 231 218 224 237 226 212 212 211 208 209 210 209 208 207 205 213 204 192 183 175 187 192 191 202 212 204 181 190 204 183 208 232 255 226 149 228 128 124 80 35 32 70 124 113
251 238 224 214 222 230 220 206 208 207 207 209 209 208 209 201 209 209 193 196 186 188 200 202 200 207 201 176 193 215 195 217 231 246 215 169 24 292 303 328 13 1 353 131 133
258 242 234 223 212 220 222 216 205 206 205 205 205 205 206 202 203 205 203 205 196 190 205 203 201 191 197 190 178 186 196 208 230 235 213 216 182 278 311 309 335 309 265 260 255
258 248 237 230 218 212 217 219 210 204 203 202 201 201 201 201 197 201 204 202 197 189 194 191 200 200 193 190 183 188 198 209 222 229 226 225 190 182 299 292 293 301 290 278 262
254 247 242 233 225 211 212 216 214 208 204 200 199 198 197 197 198 194 193 197 199 191 192 192 185 193 193 199 188 226 228 224 238 228 241 215 242 244 256 262 268 281 293 282 267
248 241 241 236 228 217 209 211 212 209 203 201 199 197 197 200 202 199 198 196 194 204 203 199 184 191 195 202 215 217 251 246 238 243 238 232 225 244 261 246 253 265 272 275 278
249 240 238 232 230 220 209 207 208 207 205 203 198 197 198 196 198 201 201 200 196 191 195 199 195 192 207 222 236 246 255 251 243 227 234 233 249 235 277 262 249 255 260 277 281
249 238 232 225 229 222 212 205 203 207 204 203 201 200 200 204 200 201 203 199 195 193 197 195 203 217 231 236 247 258 251 233 227 245 236 244 256 242 249 266 250 252 251 270 283
247 236 226 222 224 219 214 206 203 203 203 202 200 197 203 201 202 200 195 202 196 187 199 192 211 217 228 227 249 243 210 213 247 246 246 258 254 257 241 237 246 254 258 270 272
245 239 224 221 218 215 217 210 198 200 204 204 201 199 200 200 204 203 204 201 200 197 190 201 210 222 219 225 228 228 232 213 233 236 256 270 268 278 262 255 258 264 264 267 267
244 241 228 220 214 213 220 211 202 200 201 203 200 202 202 202 204 202 206 207 211 201 203 209 206 224 220 226 225 220 231 245 255 244 273 270 273 252 273 269 274 276 271 267 267
240 239 228 221 214 211 221 216 202 201 203 203 200 204 204 208 209 209 214 215 213 215 211 213 208 236 221 220 225 229 237 236 222 234 245 268 281 255 258 271 280 285 284 278 276
235 234 228 224 213 208 212 218 204 203 206 207 205 207 207 208 212 214 212 219 222 227 230 224 226 219 230 228 221 224 232 239 238 280 275 236 231 259 268 272 279 286 287 282 277
232 228 230 228 218 207 210 210 206 203 205 208 207 207 206 210 215 217 220 220 226 225 229 232 228 220 225 227 228 225 232 228 247 250 249 251 256 277 268 279 272 276 283 280 276
228 226 225 226 220 213 207 206 207 205 205 206 208 208 205 206 212 213 218 223 222 220 223 228 228 229 230 241 235 242 234 240 236 250 262 268 266 269 282 279 282 287 286 282 278
225 226 223 225 224 218 208 208 207 207 209 207 207 210 208 207 212 215 217 221 221 219 222 226 227 229 227 224 231 233 239 242 244 246 250 255 265 283 278 273 276 279 282 284 282
225 224 222 224 224 224 216 209 207 209 210 211 211 209 213 214 215 219 222 223 227 223 221 226 229 232 233 238 240 243 242 250 260 258 272 279 287 283 275 273 273 271 274 278 279
222 223 222 221 221 222 219 212 209 211 212 214 214 212 214 217 219 222 226 231 232 229 226 224 226 228 234 242 243 248 250 256 263 268 271 280 289 291 286 278 275 275 276 278 277